Terminal Aerodrome Forecast
Issued by NWS

Home | Current Version | Previous Version | Text Only | Print | Product List | Glossary Off
Versions: 1 2 3 4 5 6 7 8 9 10 11 12 13 14 15 16 17

000
FTUS43 KFGF 290520
TAFBJI
TAF
KBJI 290520Z 2906/3006 30006KT P6SM SKC
     FM292000 32010G16KT P6SM VCTS BKN080CB
     FM300000 33006KT P6SM BKN120=

USA.gov is the U.S. government's official web portal to all federal, state and local government web resources and services.